Weather observations for the past three days for
Alexandria, Alexandria International Airport
Metric (Imperial)
Date Time (cdt) Wind (kph) Vis. (km) Weather Sky Cond. Temperature (ºC) Relative Humidity Wind Chill (°C) Heat Index (°C) Pressure Precipitation (cm)
Air Dwpt 6 hour altimeter (cm) sea level (mb) 1 hr 3 hr 6 hr
Max. Min.
01 14:53 SE 17 16.09 Light Rain FEW090 BKN110 25.6 24.4 93% 27 76.2 1016.1 0.03
01 13:53 SE 15 16.09 Fair CLR 26.7 23.3 82% 29 76.2 1016.1
01 12:53 E 20 G 35 16.09 Partly Cloudy SCT040 33.3 23.3 33.9 24.4 56% 39 76.23 1016.3
01 11:53 S 6 16.09 Mostly Cloudy BKN035 BKN047 BKN065 29.4 25 77% 35 76.25 1016.7
01 10:53 NE 17 16.09 Partly Cloudy FEW028 SCT036 31.1 25 70% 38 76.3 1017.2
01 09:53 E 17 16.09 Fair CLR 29.4 25 77% 35 76.28 1017.1
01 08:53 E 11 16.09 Fair CLR 27.8 25 85% 32 76.3 1017.5
01 07:53 NE 13 16.09 Fair CLR 25.6 23.9 90% 27 76.25 1016.9
01 06:53 NE 7 16.09 Fair CLR 24.4 23.9 26.7 24.4 97% 24 76.23 1016.3
01 05:53 NE 6 16.09 Fair CLR 24.4 23.9 97% 24 76.2 1016.1
01 04:53 E 7 16.09 Fair CLR 25 23.9 94% 26 76.2 1016.0
01 03:53 NE 7 16.09 Fair CLR 25 23.9 94% 26 76.2 1015.9
01 02:53 Calm 16.09 Fair CLR 25.6 23.9 90% 27 76.2 1015.9
01 01:53 E 7 16.09 Fair CLR 26.1 23.9 88% 28 76.17 1015.8
01 00:53 E 7 16.09 Fair CLR 26.7 23.9 33.9 26.1 85% 29 76.2 1016.2
31 23:53 Calm 16.09 Fair CLR 26.1 24.4 90% 28 76.2 1016.1
31 22:53 SE 7 16.09 Fair CLR 27.2 24.4 85% 31 76.2 1015.9
31 21:53 SE 9 16.09 Fair CLR 27.2 24.4 85% 31 76.17 1015.8
31 20:53 Calm 16.09 Fair CLR 27.2 23.9 82% 30 76.15 1015.4
31 19:53 S 13 16.09 Overcast SCT075 BKN100 OVC110 26.7 24.4 87% 30 76.12 1015.1
31 18:53 E 11 16.09 Fair CLR 33.9 21.1 35.6 32.8 47% 37 76.07 1014.4
31 17:53 E 13 16.09 Fair CLR 34.4 21.7 48% 38 76.1 1014.6
31 16:53 NE 13 16.09 Fair CLR 34.4 21.7 48% 38 76.1 1014.6
31 15:53 Vrbl 11 16.09 A Few Clouds FEW055 35 21.7 46% 39 76.15 1015.3
31 14:53 Vrbl 9 16.09 Partly Cloudy SCT055 35.6 22.8 48% 41 76.17 1015.8
31 13:53 E 15 16.09 A Few Clouds FEW047 FEW055 34.4 22.2 49% 39 76.23 1016.5
31 12:53 NE 11 16.09 A Few Clouds FEW044 33.3 22.8 33.3 23.3 54% 38 76.28 1017.2
31 11:53 E 11 16.09 A Few Clouds FEW035 32.2 22.8 58% 37 76.35 1017.9
31 10:53 Vrbl 11 16.09 Mostly Cloudy BKN028 31.7 23.3 61% 37 76.38 1018.3
31 09:53 SE 11 16.09 Fair CLR 29.4 23.9 72% 34 76.35 1018.1
31 08:53 NE 7 16.09 Fair CLR 28.3 23.9 77% 32 76.35 1017.9
31 07:53 NE 6 16.09 Fair CLR 25.6 23.9 90% 27 76.3 1017.6
31 06:53 Calm 16.09 Fair CLR 23.3 22.8 26.1 23.3 97% 76.25 1016.6
31 05:53 Calm 16.09 Fair CLR 23.3 22.8 97% 76.23 1016.3
31 04:53 Calm 16.09 Fair CLR 23.9 22.8 94% 23 76.2 1016.1
31 03:53 Calm 16.09 Fair CLR 23.9 22.8 94% 23 76.2 1016.0
31 02:53 Calm 16.09 Fair CLR 24.4 23.3 94% 24 76.2 1016.1
31 01:53 Calm 16.09 Fair CLR 25.6 22.8 85% 27 76.23 1016.3
31 00:53 Calm 16.09 Fair CLR 25.6 23.3 33.3 25.6 87% 27 76.23 1016.4
30 23:53 SE 9 16.09 Fair CLR 26.7 23.3 82% 29 76.23 1016.5
30 22:53 SE 11 16.09 Fair CLR 27.2 23.3 79% 30 76.23 1016.3
30 21:53 SE 17 16.09 Fair CLR 28.3 22.8 72% 32 76.17 1015.8
30 20:53 SE 9 16.09 Fair CLR 30 20.6 57% 32 76.1 1014.7
30 19:53 Calm 16.09 Fair CLR 30 21.7 61% 33 76.05 1014.1
30 18:53 E 6 16.09 Fair CLR 33.9 18.9 36.7 33.3 41% 36 76.05 1013.9
30 17:53 E 9 16.09 Fair CLR 35 17.8 36% 36 76.05 1014.0
30 16:53 Vrbl 9 16.09 Fair CLR 36.1 17.8 34% 37 76.05 1014.0
30 15:53 SE 9 16.09 Fair CLR 35.6 17.8 35% 37 76.1 1014.6
30 14:53 E 9 16.09 A Few Clouds FEW070 36.1 18.9 36% 38 76.15 1015.5
30 13:53 E 7 16.09 Fair CLR 35 20.6 43% 38 76.23 1016.2
30 12:53 SE 11 16.09 Partly Cloudy FEW060 SCT080 33.3 21.1 34.4 22.8 49% 37 76.28 1016.9
30 11:53 Calm 16.09 Fair CLR 32.8 21.7 52% 36 76.33 1017.6
30 10:53 N 9 16.09 Fair CLR 32.2 21.7 54% 36 76.33 1017.7
30 09:53 Calm 14.48 Fair CLR 30 22.8 65% 34 76.33 1017.9
30 08:53 Calm 12.87 A Few Clouds FEW090 27.8 22.2 72% 30 76.33 1017.8
30 07:53 Calm 11.27 Fair CLR 25 22.8 88% 26 76.33 1017.8
30 06:53 Calm 11.27 Fair CLR 23.3 22.2 26.1 22.8 94% 76.28 1017.2
30 05:53 Calm 11.27 Partly Cloudy SCT080 23.3 22.2 94% 76.23 1016.5
30 04:53 NW 6 12.87 Fair CLR 22.8 22.2 96% 76.2 1016.2
30 03:53 Calm 16.09 Fair CLR 23.9 22.2 90% 23 76.2 1015.9
30 02:53 Calm 16.09 Partly Cloudy SCT090 25 22.2 85% 26 76.23 1016.2
30 01:53 E 7 16.09 Mostly Cloudy BKN090 25.6 22.2 82% 27 76.23 1016.5
30 00:53 SE 7 16.09 Fair CLR 25 22.8 32.2 25 88% 26 76.25 1016.7
29 23:53 S 7 16.09 Fair CLR 26.1 22.2 79% 28 76.25 1016.6
29 22:53 E 7 16.09 Fair CLR 28.3 21.7 67% 31 76.23 1016.3
29 21:53 E 7 16.09 Fair CLR 28.9 22.8 70% 32 76.2 1016.0
29 20:53 Calm 16.09 Fair CLR 28.9 22.8 70% 32 76.15 1015.3
29 19:53 Calm 16.09 Fair CLR 30 22.8 65% 34 76.1 1014.7
29 18:53 S 11 16.09 Fair CLR 32.2 21.1 35.6 32.2 52% 35 76.1 1014.7
29 17:53 SE 13 16.09 A Few Clouds FEW060 32.8 21.7 52% 36 76.1 1014.7
29 16:53 SE 13 16.09 Fair CLR 34.4 21.7 48% 38 76.1 1014.8
Date Time (cdt) Wind (kph) Vis. (km) Weather Sky Cond. Air Dwpt Max. Min. Relative Humidity Wind Chill (°C) Heat Index (°C) altimeter (cm) sea level (mb) 1 hr 3 hr 6 hr
6 hour
Temperature (ºC) Pressure Precipitation (cm)